Wind_Speed
22 23 23 20 14 13 26 32 23 24 13 19 13 8 3 11 7 5 8 15 11 16 14 11 9 10 10 10 11 12 13 13 14 14 13 13 12 11 10 11 11 11 10 8 8 8 8 8 8
19 20 23 20 19 24 32 28 28 22 17 16 16 19 12 8 4 10 4 12 19 19 17 14 10 9 9 9 9 10 12 13 12 11 11 11 10 9 8 9 9 9 9 8 7 7 8 9 8
17 21 22 23 31 36 36 28 18 16 24 23 21 18 16 8 4 5 10 20 28 23 21 16 12 9 8 9 7 7 9 10 10 10 9 9 9 8 7 7 7 8 7 7 6 6 7 8 8
18 21 25 28 30 28 39 33 22 25 20 7 11 2 7 10 13 8 12 17 19 22 21 18 16 12 10 9 9 7 5 6 7 7 7 8 8 8 7 6 6 5 5 5 5 6 6 7 8
22 26 26 27 40 35 22 19 20 25 20 19 15 12 8 12 17 15 4 8 9 17 20 19 17 16 13 10 9 9 7 5 5 5 5 6 6 6 6 6 6 5 4 4 4 5 5 7 9
27 29 20 33 38 31 31 27 29 32 29 14 6 8 8 12 15 16 17 17 16 17 19 18 18 18 15 13 11 9 7 6 5 6 6 6 5 5 5 5 5 5 5 5 5 6 7 8 9
32 32 35 30 28 25 20 13 30 32 28 18 16 9 14 14 15 15 17 19 21 21 21 19 20 18 16 14 12 12 11 9 8 7 6 5 5 5 5 6 6 5 5 6 6 6 8 9 9
31 30 32 32 30 29 24 27 26 25 22 21 20 23 16 14 13 16 17 20 18 28 23 23 23 18 17 16 14 13 11 9 7 6 4 4 4 4 5 5 6 7 7 7 8 8 8 9 10
28 34 40 40 36 33 21 21 19 18 24 37 27 26 15 24 19 17 17 23 21 29 29 26 23 22 20 17 16 15 11 9 8 7 6 5 6 6 7 7 8 8 8 8 9 9 9 9 10
39 43 47 37 36 31 26 25 20 19 21 26 27 24 21 20 22 20 17 24 25 29 34 32 26 22 22 19 16 14 11 9 8 7 7 7 6 7 7 7 8 7 8 8 9 9 9 10 10
41 51 40 38 33 28 26 26 24 26 21 28 33 33 23 22 24 22 21 25 32 23 28 26 25 25 22 17 17 14 12 10 8 8 7 7 7 7 6 8 9 9 8 8 9 10 10 12 13
39 45 42 38 29 27 29 28 32 27 17 21 23 30 37 30 29 26 25 28 34 34 24 25 25 23 21 19 18 16 14 10 8 9 9 9 9 9 11 10 10 9 8 5 8 10 12 13 14
40 38 34 32 31 34 33 37 33 33 23 14 19 27 22 29 33 37 35 31 31 38 44 41 28 23 26 25 20 17 13 11 11 11 10 9 10 10 12 12 11 8 7 9 13 15 16 16 16
32 31 35 30 32 30 34 36 33 42 31 20 20 29 28 33 36 36 33 32 35 32 41 38 34 33 25 16 14 14 14 15 13 12 11 9 9 9 11 11 12 13 14 16 20 16 16 18 19
29 36 36 40 36 39 33 39 51 36 27 26 25 33 29 34 38 40 37 31 42 38 32 30 28 40 33 32 17 17 18 18 16 15 12 6 8 11 13 13 13 16 16 15 17 18 21 22 25
21 29 40 46 41 38 32 54 46 37 29 31 35 29 36 37 39 42 34 33 43 37 28 31 33 31 25 24 23 23 18 16 18 16 9 9 11 13 15 14 13 15 16 15 16 18 19 22 26
33 41 46 42 37 38 35 56 44 36 36 37 35 40 33 42 48 41 36 36 44 41 32 30 32 29 28 21 23 23 18 17 14 12 10 6 12 16 11 13 12 14 15 15 19 22 25 28 29
46 47 38 35 38 30 39 49 43 43 35 36 40 40 44 46 49 38 30 32 37 40 35 35 33 16 16 31 31 28 25 24 21 16 11 12 12 15 14 15 14 17 16 17 20 24 27 30 32
35 25 34 40 39 31 37 45 49 39 36 40 42 41 45 49 48 41 36 39 37 41 31 36 35 35 33 29 33 31 27 23 19 16 13 14 14 15 17 18 20 20 18 20 23 27 29 31 29
38 37 38 35 30 32 38 46 45 43 45 41 39 39 44 35 41 42 41 46 41 36 38 35 36 34 34 37 30 30 25 24 17 15 16 16 16 20 20 21 21 22 19 20 22 25 26 19 12
38 40 43 41 39 37 35 38 46 42 44 44 41 37 40 42 37 42 42 43 44 39 38 35 25 26 17 34 30 30 28 26 21 17 15 17 19 22 23 23 22 18 14 14 14 10 4 5 5
40 38 35 35 39 39 41 21 39 45 43 46 44 45 41 42 39 36 40 44 43 42 39 36 32 26 26 28 30 29 30 25 18 16 18 18 19 22 22 21 22 20 19 11 8 6 8 10 11
40 31 41 39 38 35 51 20 33 29 49 43 49 47 45 41 41 36 41 43 41 44 40 39 31 25 27 37 28 32 27 23 18 16 16 15 16 18 17 17 19 19 19 22 11 9 12 14 15
27 29 37 36 34 25 40 33 33 42 39 41 50 49 49 42 40 36 33 42 41 43 39 30 38 20 22 25 27 28 23 19 17 14 13 16 16 16 13 14 14 17 23 20 24 15 15 16 18
20 22 2 9 18 12 40 33 36 47 30 44 51 49 46 45 37 35 36 45 45 43 40 35 30 27 22 24 28 27 19 17 15 13 14 15 16 17 18 19 22 25 27 23 26 22 19 18 21
25 29 12 6 11 16 37 23 34 53 33 31 46 38 42 43 42 37 40 47 45 43 40 32 29 30 29 31 33 26 20 16 12 13 13 13 15 16 21 24 28 24 22 24 20 18 20 21 23
25 39 35 28 28 9 26 33 34 50 50 36 27 34 31 44 41 36 40 45 46 46 45 36 34 30 32 34 29 22 17 15 15 14 12 13 14 17 23 25 21 16 20 19 17 20 24 25 26
27 26 25 16 5 10 11 16 33 39 54 45 30 39 34 45 41 36 41 49 49 46 41 37 30 25 27 30 25 23 15 15 16 14 13 14 16 18 17 15 13 14 17 16 17 23 26 28 30
15 28 27 16 16 4 4 18 34 41 39 53 43 37 35 45 48 44 47 50 49 46 38 34 29 27 25 27 24 19 18 20 17 14 13 15 17 17 17 12 7 10 16 18 23 29 28 30 31
23 27 30 12 8 21 12 22 21 30 27 38 51 33 42 53 52 50 51 46 46 44 39 33 31 30 24 26 22 23 22 20 16 14 15 15 15 15 14 12 13 17 21 25 26 27 29 30 32
Wind_Direction
250 246 246 246 244 239 248 248 250 252 262 306 257 244 206 346 19 298 230 146 170 208 179 159 147 137 133 134 131 124 118 116 122 128 131 129 127 123 117 113 112 114 119 120 120 120 126 124 125
244 241 237 229 233 230 245 245 249 245 284 290 269 251 240 305 8 320 209 153 198 188 192 168 160 152 146 140 137 131 120 114 115 118 123 124 123 121 116 111 109 112 117 123 127 131 141 143 143
229 231 226 229 232 231 240 240 238 253 282 276 262 252 245 260 265 210 181 174 198 181 194 177 174 171 171 165 152 140 128 116 112 114 117 120 123 126 125 119 114 114 121 130 140 146 152 159 159
217 218 226 225 230 240 244 246 225 245 257 269 244 157 217 252 232 195 147 158 175 184 192 185 187 189 193 189 178 169 158 135 127 122 121 126 131 136 138 135 128 124 127 140 157 168 169 173 175
214 214 224 237 241 239 224 238 237 259 255 299 246 211 240 234 264 256 223 206 212 198 197 192 195 202 203 207 202 191 184 171 155 152 155 152 150 150 153 159 161 162 161 163 175 189 193 192 193
207 211 213 233 238 243 244 229 235 247 255 268 210 184 210 232 248 245 251 241 226 215 210 201 202 205 206 213 215 210 217 222 215 203 189 176 175 174 178 186 189 188 190 197 204 208 212 211 209
216 210 224 228 238 244 236 219 232 243 252 236 263 220 210 229 266 256 253 254 230 219 215 208 206 206 209 214 219 225 225 223 221 219 210 197 194 204 207 208 210 212 217 222 228 232 233 231 227
222 220 226 233 239 237 219 239 250 256 257 255 254 232 218 237 248 251 254 254 241 222 215 208 206 210 211 220 222 223 225 229 240 241 232 217 218 222 227 231 233 227 228 236 238 240 241 245 245
212 225 229 226 224 233 225 250 240 264 263 247 227 209 216 238 218 228 247 258 251 219 217 213 209 209 212 216 217 222 224 227 233 243 243 239 237 228 228 230 236 240 241 244 248 249 249 249 250
213 222 233 240 231 233 235 248 255 265 270 232 213 202 216 218 207 213 223 258 250 220 215 212 208 208 213 217 222 224 216 217 222 234 239 242 243 245 253 253 257 254 255 260 262 264 264 261 256
225 234 238 240 240 235 234 239 248 264 282 245 233 223 215 209 213 223 233 246 262 252 219 211 209 212 212 220 224 214 210 223 233 240 245 250 253 259 264 266 257 256 260 264 269 269 267 266 263
233 239 238 239 229 231 242 253 251 248 252 246 235 231 227 218 221 213 218 232 246 232 222 222 230 216 209 211 207 207 211 217 234 250 256 262 271 280 281 265 273 271 266 275 291 297 282 272 270
238 243 243 245 242 224 235 241 243 233 216 248 214 196 212 224 230 234 225 223 242 253 203 233 228 229 218 200 201 205 209 222 234 237 249 258 276 286 286 282 281 289 269 282 291 299 285 289 295
233 247 255 252 242 245 243 247 236 218 218 224 216 198 218 229 221 227 238 220 245 259 245 263 207 215 209 195 205 208 222 229 224 225 243 256 270 288 290 289 288 285 292 311 325 325 312 315 314
239 243 240 238 241 236 246 254 228 220 225 237 215 213 213 215 223 222 228 217 228 250 258 241 238 269 217 199 212 233 219 225 219 212 221 238 285 288 301 300 281 291 311 314 320 318 311 317 314
239 242 247 230 232 239 233 248 240 230 237 241 229 212 223 218 225 221 218 213 224 248 239 222 236 213 259 192 211 227 224 231 239 219 245 265 303 328 290 295 300 300 298 297 306 307 304 298 298
232 236 230 240 237 235 232 246 251 244 234 231 233 220 220 231 225 225 219 223 224 242 232 244 252 254 237 204 222 221 231 237 225 248 257 275 318 317 295 313 302 292 290 290 301 300 301 299 297
226 228 238 244 239 236 238 244 240 247 242 231 225 222 219 228 230 230 219 219 224 235 247 254 251 225 244 210 209 220 220 217 234 251 276 299 282 312 307 302 288 282 288 292 294 295 299 294 293
241 247 245 245 237 236 239 244 240 238 236 227 227 224 228 232 234 226 224 221 227 232 236 242 249 241 222 206 213 218 224 236 242 244 272 283 286 297 285 283 288 288 285 290 298 300 294 292 296
248 251 252 248 243 245 244 245 247 238 240 236 222 232 231 239 235 224 222 227 228 238 238 233 235 260 246 207 206 223 225 234 239 246 254 264 278 276 274 279 283 278 282 288 295 293 292 296 296
246 247 248 254 245 253 256 257 249 239 237 238 227 225 236 240 241 226 220 226 227 235 237 239 241 254 200 190 196 211 221 228 237 248 257 266 274 277 283 286 289 282 280 290 289 290 282 292 294
252 245 246 251 252 255 237 260 256 243 233 233 231 222 229 233 236 234 214 223 227 233 239 238 247 249 208 200 206 215 227 232 244 245 268 283 291 296 298 287 293 298 274 272 283 284 294 302 306
258 250 252 256 259 256 254 254 258 254 227 226 222 219 224 229 235 229 220 219 226 229 240 238 246 212 194 201 201 218 223 231 242 263 282 291 294 301 301 297 302 291 288 277 264 282 283 293 299
242 259 255 253 260 259 247 239 247 248 220 222 218 223 218 222 233 229 217 214 222 226 235 212 202 205 190 193 202 212 224 238 248 264 270 282 291 295 289 298 275 291 294 281 281 274 283 291 295
249 238 270 255 239 239 239 245 229 234 223 221 218 222 228 215 224 221 215 212 219 222 226 218 209 211 206 204 214 221 228 234 243 263 278 289 286 292 295 293 263 296 300 263 264 271 275 286 289
243 232 199 239 225 241 236 233 226 220 207 219 225 222 217 211 220 219 213 207 216 222 226 223 231 223 214 207 217 220 227 232 243 266 282 282 290 297 297 289 288 295 262 259 265 275 283 290 292
237 243 236 227 255 304 245 243 242 236 222 227 223 220 221 207 213 211 209 206 213 216 217 221 224 229 217 213 218 218 213 238 245 261 270 281 286 290 288 288 292 273 258 257 263 278 285 285 289
244 244 237 201 223 231 239 249 228 228 228 222 209 219 220 207 211 202 203 207 212 213 210 218 222 229 217 212 210 205 217 225 242 251 271 280 283 291 299 302 291 279 258 257 270 277 285 293 292
252 234 241 252 218 218 243 236 223 228 238 229 216 214 217 207 202 201 203 207 212 209 208 220 232 230 218 217 208 217 221 224 236 250 266 270 278 289 294 290 297 276 260 261 274 281 287 293 296
259 246 248 246 243 223 211 254 222 240 253 236 229 226 227 202 195 197 201 202 203 205 213 218 233 234 237 217 213 213 212 220 228 242 256 270 279 289 285 276 261 268 281 283 283 290 292 293 295
Height
3147 3150 3151 3152 3157 3150 3145 3143 3144 3141 3145 3151 3146 3145 3148 3150 3155 3161 3156 3162 3168 3172 3174 3173 3173 3170 3169 3171 3171 3170 3170 3169 3170 3171 3172 3173 3175 3176 3177 3178 3177 3178 3180 3181 3182 3183 3184 3185 3186
3143 3145 3146 3147 3146 3143 3137 3142 3141 3140 3146 3150 3145 3144 3147 3146 3151 3153 3154 3159 3170 3169 3173 3171 3171 3170 3170 3171 3172 3171 3171 3170 3170 3172 3173 3174 3175 3177 3178 3179 3179 3179 3180 3181 3183 3183 3184 3185 3187
3138 3139 3142 3141 3136 3132 3133 3139 3139 3137 3145 3147 3144 3142 3144 3143 3149 3156 3157 3157 3164 3164 3169 3168 3168 3169 3169 3171 3172 3173 3172 3170 3170 3171 3172 3173 3173 3175 3177 3179 3180 3179 3179 3180 3182 3184 3185 3186 3187
3133 3135 3136 3131 3126 3130 3132 3136 3139 3136 3140 3146 3143 3141 3138 3141 3147 3155 3158 3161 3159 3162 3164 3163 3164 3166 3168 3169 3170 3172 3173 3172 3171 3172 3173 3173 3173 3173 3175 3176 3177 3178 3179 3179 3181 3183 3184 3185 3187
3126 3128 3127 3124 3121 3125 3129 3132 3135 3135 3138 3145 3142 3140 3135 3138 3142 3149 3155 3157 3159 3161 3161 3161 3163 3165 3167 3169 3170 3170 3171 3170 3170 3171 3172 3172 3172 3173 3174 3174 3174 3175 3177 3179 3180 3182 3184 3185 3185
3119 3122 3119 3117 3116 3122 3126 3129 3129 3131 3134 3140 3143 3140 3134 3138 3139 3145 3151 3156 3157 3158 3159 3159 3162 3164 3166 3168 3169 3169 3170 3170 3170 3170 3171 3171 3171 3172 3173 3174 3175 3175 3176 3178 3179 3180 3181 3183 3184
3113 3114 3112 3113 3115 3118 3121 3126 3128 3130 3132 3137 3140 3140 3137 3135 3136 3141 3147 3151 3155 3155 3157 3158 3161 3163 3166 3168 3169 3170 3170 3170 3171 3171 3172 3171 3171 3172 3172 3173 3173 3174 3175 3176 3177 3178 3179 3181 3182
3110 3110 3107 3109 3111 3111 3115 3122 3127 3129 3129 3134 3136 3137 3137 3134 3133 3132 3139 3146 3152 3154 3155 3157 3158 3161 3163 3165 3166 3168 3169 3170 3171 3172 3172 3173 3172 3172 3173 3173 3173 3172 3173 3174 3175 3176 3176 3178 3180
3107 3102 3096 3099 3104 3106 3111 3115 3120 3127 3125 3127 3129 3132 3135 3133 3132 3132 3134 3136 3146 3148 3150 3152 3155 3158 3161 3162 3164 3166 3168 3170 3171 3172 3173 3172 3172 3172 3172 3172 3172 3172 3172 3173 3173 3174 3175 3175 3177
3093 3089 3084 3094 3099 3103 3108 3110 3113 3119 3121 3121 3123 3128 3128 3133 3131 3131 3132 3131 3138 3143 3143 3146 3150 3155 3158 3160 3162 3164 3166 3168 3170 3171 3171 3172 3171 3171 3172 3172 3172 3172 3172 3173 3173 3173 3174 3174 3173
3084 3074 3086 3089 3096 3101 3103 3104 3107 3109 3112 3113 3117 3125 3127 3129 3129 3129 3130 3129 3130 3141 3147 3151 3149 3148 3156 3161 3162 3163 3163 3166 3169 3171 3170 3169 3172 3171 3170 3170 3170 3171 3171 3172 3172 3172 3171 3171 3171
3078 3076 3081 3086 3091 3094 3096 3101 3098 3102 3108 3109 3110 3118 3121 3124 3125 3126 3129 3131 3128 3131 3142 3147 3151 3146 3152 3155 3159 3161 3160 3163 3167 3170 3170 3169 3168 3169 3170 3169 3170 3171 3171 3171 3170 3171 3170 3168 3168
3067 3072 3078 3082 3086 3087 3090 3090 3093 3094 3102 3106 3104 3111 3114 3117 3118 3121 3127 3130 3126 3124 3102 3127 3141 3138 3148 3149 3152 3157 3159 3159 3165 3166 3167 3167 3166 3168 3166 3166 3168 3170 3169 3170 3169 3170 3169 3167 3167
3065 3071 3071 3075 3076 3079 3084 3085 3089 3087 3095 3100 3103 3106 3108 3111 3113 3115 3120 3129 3124 3117 3123 3130 3130 3129 3149 3149 3151 3156 3157 3158 3159 3163 3162 3163 3161 3163 3163 3162 3162 3166 3166 3167 3165 3166 3165 3164 3163
3061 3063 3065 3061 3066 3070 3084 3079 3069 3085 3090 3094 3097 3101 3104 3105 3107 3112 3118 3122 3117 3117 3115 3121 3129 3129 3147 3144 3150 3156 3158 3160 3160 3162 3161 3164 3160 3160 3159 3160 3161 3161 3162 3162 3162 3162 3160 3161 3159
3054 3056 3052 3046 3059 3066 3079 3056 3067 3080 3085 3087 3092 3095 3099 3099 3101 3107 3116 3118 3115 3111 3115 3121 3126 3133 3137 3143 3148 3154 3155 3157 3156 3161 3165 3163 3160 3159 3157 3160 3158 3164 3160 3159 3159 3161 3160 3159 3155
3042 3035 3035 3046 3053 3061 3065 3050 3065 3075 3079 3082 3085 3089 3092 3093 3095 3102 3112 3113 3114 3110 3112 3119 3124 3129 3131 3139 3148 3149 3151 3156 3156 3155 3160 3163 3159 3157 3158 3156 3156 3160 3156 3156 3157 3156 3154 3152 3149
3021 3025 3030 3037 3045 3054 3055 3049 3058 3064 3070 3072 3077 3081 3084 3084 3087 3097 3104 3105 3108 3108 3114 3118 3121 3129 3134 3139 3146 3149 3150 3151 3153 3151 3156 3159 3160 3158 3157 3154 3155 3157 3153 3150 3150 3150 3148 3146 3143
3029 3032 3030 3031 3039 3045 3046 3044 3047 3056 3061 3063 3067 3072 3074 3075 3082 3093 3097 3098 3101 3106 3111 3114 3119 3122 3127 3133 3137 3143 3146 3147 3148 3152 3152 3153 3155 3156 3155 3152 3151 3151 3147 3146 3145 3143 3141 3139 3137
3024 3026 3024 3028 3033 3039 3038 3035 3039 3049 3049 3055 3060 3063 3066 3070 3074 3084 3091 3089 3094 3101 3107 3110 3114 3115 3112 3124 3133 3141 3144 3145 3146 3148 3151 3151 3151 3152 3152 3150 3147 3145 3142 3140 3140 3137 3134 3133 3132
3015 3019 3020 3021 3025 3028 3030 3029 3029 3038 3041 3046 3052 3056 3060 3060 3065 3076 3084 3082 3087 3094 3099 3104 3108 3110 3112 3118 3126 3135 3139 3141 3142 3146 3148 3148 3147 3148 3147 3144 3144 3142 3138 3137 3135 3132 3131 3131 3130
3007 3012 3015 3018 3024 3020 3020 3020 3018 3027 3032 3037 3043 3048 3048 3054 3059 3067 3078 3077 3083 3090 3093 3097 3101 3107 3109 3115 3125 3129 3134 3136 3141 3142 3143 3145 3145 3144 3145 3144 3142 3137 3136 3134 3131 3129 3130 3130 3128
2999 3008 3009 3012 3014 3015 3006 3018 3009 3015 3019 3026 3032 3037 3042 3047 3053 3061 3070 3075 3081 3083 3087 3096 3098 3102 3109 3113 3120 3125 3131 3135 3136 3139 3139 3141 3141 3141 3140 3139 3135 3136 3136 3130 3126 3126 3127 3127 3126
2995 2999 3000 3002 3004 2998 2999 3006 3001 3003 3010 3017 3023 3029 3035 3041 3047 3056 3064 3071 3075 3079 3084 3091 3098 3103 3103 3108 3116 3122 3127 3131 3134 3135 3137 3136 3136 3135 3136 3133 3131 3134 3131 3127 3126 3124 3124 3123 3123
2992 2995 2998 2997 2990 2989 2992 2992 2996 2995 3002 3009 3012 3022 3029 3037 3042 3048 3054 3060 3066 3072 3078 3085 3092 3096 3099 3106 3111 3116 3122 3126 3129 3130 3130 3129 3130 3130 3130 3128 3128 3126 3122 3122 3121 3121 3121 3120 3119
2982 2986 2988 2987 2983 2983 2983 2978 2983 2988 2995 3004 3010 3018 3022 3028 3034 3042 3048 3054 3060 3064 3070 3078 3084 3090 3097 3103 3106 3112 3116 3119 3120 3124 3125 3127 3126 3125 3125 3124 3122 3119 3117 3117 3117 3117 3117 3116 3116
2975 2972 2979 2982 2984 2985 2976 2978 2984 2984 2986 2994 3005 3010 3015 3022 3030 3037 3044 3051 3053 3058 3066 3075 3082 3090 3095 3099 3102 3106 3110 3114 3117 3119 3121 3122 3122 3122 3120 3118 3114 3112 3114 3115 3113 3114 3112 3111 3110
2968 2971 2975 2973 2978 2981 2971 2970 2974 2975 2980 2986 2992 3003 3008 3016 3026 3032 3037 3041 3045 3053 3065 3073 3079 3085 3090 3092 3095 3101 3106 3109 3112 3114 3116 3118 3118 3117 3115 3111 3110 3110 3111 3111 3110 3108 3107 3106 3104
2962 2962 2966 2970 2969 2972 2971 2964 2970 2974 2976 2981 2986 2995 3002 3009 3018 3026 3030 3035 3043 3050 3061 3067 3072 3078 3084 3088 3092 3096 3100 3104 3107 3110 3111 3113 3113 3112 3109 3108 3106 3108 3108 3107 3107 3106 3105 3102 3099
2953 2953 2960 2960 2963 2964 2963 2958 2964 2968 2967 2974 2981 2987 2991 3002 3010 3020 3025 3032 3040 3048 3056 3062 3066 3072 3079 3085 3088 3092 3097 3101 3104 3106 3107 3108 3108 3107 3105 3104 3105 3104 3103 3104 3104 3102 3099 3096 3092